Location: Maccacari
(45.1333°N, 11.1333°E)
Time: 15:13:38
(UTC+00:00)

Courier 1B Rocket - All Passes

Search period start: 25 January 2021 00:00
Search period end: 04 February 2021 00:00
Orbit: 920 x 1202 km, 28.2° (Epoch: 25 January)

Date Brightness Start Highest point End Pass type
(mag) Time Alt. Az. Time Alt. Az. Time Alt. Az.
25 Jan - 04:50:12 10° SSE 04:51:17 10° SSE 04:52:23 10° SSE visible
25 Jan - 06:38:57 10° SSW 06:43:28 18° S 06:48:10 10° SE daylight
25 Jan - 08:31:11 10° SW 08:35:54 19° S 08:40:46 10° SE daylight
25 Jan - 10:26:22 10° SW 10:28:17 11° SSW 10:30:13 10° S daylight
26 Jan - 05:38:50 10° SSW 05:42:44 16° SSE 05:46:45 10° SE visible
26 Jan - 07:30:24 10° SW 07:35:05 19° S 07:39:59 10° SE daylight
26 Jan - 09:24:05 10° SW 09:27:30 14° SSW 09:30:59 10° SSE daylight
27 Jan - 04:39:12 10° S 04:42:03 13° SSE 04:44:58 10° SE visible
27 Jan - 06:29:48 10° SW 06:34:18 19° S 06:39:00 10° SE daylight
27 Jan - 08:22:41 10° SW 08:26:42 16° SSW 08:30:52 10° SSE daylight
28 Jan - 05:29:27 10° SSW 05:33:34 17° S 05:37:51 10° SE visible
28 Jan - 07:21:39 10° SW 07:25:55 17° S 07:30:22 10° SSE daylight
28 Jan - 09:18:04 10° SSW 09:18:15 10° SSW 09:18:27 10° SSW daylight
29 Jan - 04:29:22 10° SSW 04:32:53 15° SSE 04:36:29 10° SE visible
29 Jan - 06:20:53 10° SW 06:25:10 18° S 06:29:37 10° SE daylight
29 Jan - 08:14:43 10° SW 08:17:31 13° SSW 08:20:21 10° S daylight
30 Jan - 03:29:47 10° S 03:32:15 12° SSE 03:34:44 10° SE visible
30 Jan - 05:20:19 10° SW 05:24:27 18° S 05:28:43 10° SE visible
30 Jan - 07:13:16 10° SW 07:16:46 15° SSW 07:20:23 10° SSE daylight
31 Jan - 04:19:58 10° SSW 04:23:45 16° S 04:27:39 10° SE visible
31 Jan - 06:12:13 10° SW 06:16:03 16° S 06:20:00 10° SSE daylight
01 Feb - 03:19:52 10° SSW 03:23:06 14° SSE 03:26:24 10° SE visible
01 Feb - 05:11:25 10° SW 05:15:21 17° S 05:19:22 10° SE visible
01 Feb - 07:05:37 10° SW 07:07:37 11° SSW 07:09:38 10° S daylight
02 Feb - 02:20:14 10° S 02:22:29 12° SSE 02:24:44 10° SE visible
02 Feb - 04:10:50 10° SW 04:14:39 17° S 04:18:35 10° SE visible
02 Feb - 06:03:56 10° SW 06:06:55 13° SSW 06:09:59 10° SSE visible
03 Feb - 03:10:25 10° SSW 03:14:00 16° S 03:17:39 10° SE visible
03 Feb - 05:02:47 10° SW 05:06:15 15° S 05:09:46 10° SSE visible
